Notices

What's New in latest Release from April 7th, 2021:

- Updated Glossary, including Speed of Maximum Gust, and Total Hourly Precipitation

- Updated national and regional climate services offices contacts and prices information

- Addition of station inventory lists for 1981-2010, 1971-2000, and 1961-1990 Normals.

If you haven't already, please take our survey and provide feedback about our website: https://eccc.sondage-survey.ca/f/LanguageSelection.aspx?s=442ca660-fcf1-47c0-95a9-59707d6fd709

Hourly Data Report for June 10, 2021

OTTAWA INTL A
ONTARIO
Current Station Operator: NAVCAN

45°19'00.000" N
75°40'00.000" W
114.90 m
6106001
71628
YOW

Download Data

Hourly Data (June 2021)
Hourly Data Report for June 10, 2021
TIME
LST
Temp Definition
°C
Dew Point Definition
°C
Rel Hum Definition
%
Precip. Amount Definition
mm

Wind Dir Definition
10's deg

Wind Spd Definition
km/h
Visibility Definition
km
Stn Press Definition
kPa
Hmdx Definition


Wind Chill Definition


Weather Definition


00:00 18.8 6.5 44   36 17 24.1 100.61     LegendNANA
01:00 17.6 6.2 47   1 15 24.1 100.59     Clear
02:00 16.0 5.3 49   2 9 24.1 100.60     LegendNANA
03:00 15.1 5.2 51   4 14 24.1 100.65     LegendNANA
04:00 13.4 4.7 55   5 12 24.1 100.71     Mostly Cloudy
05:00 13.7 4.2 52   36 13 24.1 100.71     LegendNANA
06:00 15.5 3.4 44   3 12 24.1 100.76     LegendNANA
07:00 16.1 3.8 43   4 18 24.1 100.80     Mainly Clear
08:00 17.4 2.8 37   6 20 24.1 100.83     LegendNANA
09:00 18.0 1.8 33   10 19 24.1 100.84     LegendNANA
10:00 19.4 2.6 32   11 9 24.1 100.83     Mainly Clear
11:00 20.2 2.6 31   34 10 24.1 100.81     LegendNANA
12:00 20.3 2.0 29   18 8 24.1 100.74     LegendNANA
13:00 21.6 2.5 28   5 9 24.1 100.68     Mostly Cloudy
14:00 22.5 4.2 30   3 12 24.1 100.61     LegendNANA
15:00 23.2 3.1 27   5 9 24.1 100.54     LegendNANA
16:00 23.4 3.0 26   2 5 24.1 100.46     Mainly Clear
17:00 22.9 2.9 27   10 14 24.1 100.41     LegendNANA
18:00 22.6 3.0 27   13 10 24.1 100.41     LegendNANA
19:00 19.8 6.1 40   12 8 24.1 100.40     Mostly Cloudy
20:00 19.4 4.2 36   7 10 24.1 100.38     LegendNANA
21:00 19.0 5.3 40   9 12 24.1 100.40     LegendNANA
22:00 17.6 5.2 44   11 10 24.1 100.38     Cloudy
23:00 18.0 4.1 39   9 10 24.1 100.39     Rain

Notes on Data Quality.

Legend

  • E = Estimated
  • M = Missing
  • NA = Not Available*
  • [empty] = Indicates an unobserved value
Date modified: